Location: Cornospital
(48.0620°N, 3.3837°W)
Time: 16:52:14
(UTC+00:00)

USA 238 - Pass Details

Date: 17 June 2021
Orbit: 989 x 1223 km, 63.4° (Epoch: 16 July)

Event Time Altitude Azimuth Distance (km) Brightness Sun altitude
Rises 20:59:00 0° 227° (SW) 3,715 6.6 -6.2°
Reaches altitude 10° 21:01:33 10° 229° (SW) 2,786 5.9 -6.5°
Maximum altitude 21:08:05 72° 314° (NW) 1,097 4.0 -7.2°
Drops below altitude 10° 21:15:02 10° 39° (NE) 2,945 6.2 -8.0°
Sets 21:17:48 0° 42° (NE) 3,941 6.8 -8.3°
